View from above orbital plane
|
View from above satellite
|
Ground track
|
The orbit data is extracted from the following two-line orbital elements,
1 40021U 14033M 21016.08562257 .00000453 00000-0 51502-4 0 9992
2 40021 97.9604 314.8104 0011821 311.6821 48.3384 14.91145387357570
Epoch (UTC): | 16 January 2021 02:03:17 |
Eccentricity: | 0.0011821 |
inclination: | 97.9604° |
perigee height: | 586 km |
apogee height: | 602 km |
right ascension of ascending node: | 314.8104° |
argument of perigee: | 311.6821° |
revolutions per day: | 14.91145387 |
mean anomaly at epoch: | 48.3384° |
orbit number at epoch: | 35757 |
The dashed part of the orbit path shows where the satellite is in the earth's shadow,
|
|